Petersburg, AK

2:50 PM AKDT on July 29, 2016 (GMT -0800)
Johnson Petersburg

Weather History for PAPG - January, 2015

Change the Weather History Date:

Friday, January 2, 2015

  Actual Average Record
Temperature  
Mean Temperature 32 °F -  
Max Temperature 39 °F 32 °F 51 °F (2016)
Min Temperature 26 °F 24 °F 1 °F (2009)
Degree Days  
Heating Degree Days 32    
Moisture  
Dew Point 27 °F    
Average Humidity 76    
Maximum Humidity 87    
Minimum Humidity 48    
Precipitation  
Precipitation 0.32 in - - ()
Sea Level Pressure  
Sea Level Pressure 29.89 in    
Wind  
Wind Speed 6 mph (SE)    
Max Wind Speed 12 mph    
Max Gust Speed 24 mph    
Visibility 10 miles    
Events Rain , Snow    
Averages and records for this station are not official NWS values.
T = Trace of Precipitation, MM = Missing Value Source: NWS Daily Summary

Daily Weather History Graph

Daily Weather History Graph

Search for Another Location

Airport or City:

Trip Planner

Search our weather history database for the weather conditions in past years. The results will help you decide how hot, cold, wet, or windy it might be!

Date:

Astronomy

Jan. 02, 2015 Rise Set
Actual Time 8:28 AM AKST 3:23 PM AKST
Civil Twilight 7:39 AM AKST 4:12 PM AKST
Nautical Twilight 6:49 AM AKST 5:02 PM AKST
Astronomical Twilight 6:03 AM AKST 5:48 PM AKST
Moon 2:03 PM AKST (1/2) 5:46 AM AKST (1/2)
Length of Visible Light 8h 32m
Length of Day
6h 55m
Waxing Gibbous, 95% of the Moon is Illuminated
Jan 2
Waxing Gibbous
Jan 4
Full
Jan 13
Last Quarter
Jan 20
New
Jan 26
First Quarter

Hourly Weather History & Observations

Time (AKST) Temp. Windchill Dew Point Humidity Pressure Visibility Wind Dir Wind Speed Gust Speed Precip Events Conditions
12:16 AM 39.2 °F 32.0 °F 33.8 °F 81% 29.63 in 9.0 mi South 11.5 mph 18.4 mph 0.04 in   Overcast
12:36 AM 39.2 °F 33.0 °F 33.8 °F 81% 29.63 in 10.0 mi South 9.2 mph 18.4 mph 0.07 in   Overcast
12:56 AM 39.2 °F 33.0 °F 33.8 °F 81% 29.64 in 10.0 mi SSE 9.2 mph 24.2 mph 0.10 in   Overcast
1:36 AM 39.2 °F 33.6 °F 33.8 °F 81% 29.65 in 9.0 mi ESE 8.1 mph 16.1 mph 0.04 in   Overcast
2:36 AM 37.4 °F - 33.8 °F 87% 29.66 in 10.0 mi Calm Calm - N/A   Overcast
2:56 AM 37.4 °F 34.9 °F 33.8 °F 87% 29.66 in 10.0 mi SW 3.5 mph - N/A   Overcast
3:16 AM 37.4 °F - 33.8 °F 87% 29.67 in 10.0 mi Calm Calm - N/A   Overcast
3:36 AM 37.4 °F 33.8 °F 33.8 °F 87% 29.68 in 9.0 mi East 4.6 mph - N/A   Overcast
3:56 AM 35.6 °F 28.6 °F 32.0 °F 87% 29.69 in 10.0 mi ENE 9.2 mph - 0.09 in   Overcast
4:16 AM 35.6 °F 31.7 °F 30.2 °F 81% 29.70 in 8.0 mi East 4.6 mph - 0.03 in   Overcast
4:56 AM 35.6 °F 31.7 °F 30.2 °F 81% 29.73 in 10.0 mi WSW 4.6 mph - 0.06 in   Mostly Cloudy
5:36 AM 35.6 °F - 30.2 °F 81% 29.75 in 10.0 mi Calm Calm - 0.02 in   Overcast
5:56 AM 35.6 °F - 32.0 °F 87% 29.77 in 10.0 mi Calm Calm - 0.03 in   Overcast
6:16 AM 35.6 °F - 32.0 °F 87% 29.79 in 10.0 mi Calm Calm - N/A   Overcast
6:56 AM 33.8 °F - 30.2 °F 87% 29.82 in 10.0 mi Calm Calm - N/A Rain Light Rain
7:56 AM 35.6 °F 29.9 °F 30.2 °F 81% 29.86 in 10.0 mi South 6.9 mph - N/A Rain Light Rain
8:56 AM 35.6 °F 32.8 °F 30.2 °F 81% 29.90 in 10.0 mi SSE 3.5 mph - N/A   Scattered Clouds
9:56 AM 35.6 °F 31.7 °F 30.2 °F 81% 29.93 in 10.0 mi SSE 4.6 mph - N/A   Scattered Clouds
10:56 AM 35.6 °F 29.9 °F 30.2 °F 81% 29.98 in 10.0 mi SSE 6.9 mph - N/A   Mostly Cloudy
11:15 AM 35.6 °F 31.7 °F 30.2 °F 81% - 10.0 mi ESE 4.6 mph - N/A Snow Light Snow
11:56 AM 35.6 °F - 28.4 °F 75% 30.01 in 10.0 mi Calm Calm - N/A   Mostly Cloudy
12:56 PM 35.6 °F - 28.4 °F 75% 30.05 in 10.0 mi Calm Calm - N/A   Mostly Cloudy
1:56 PM 35.6 °F 30.7 °F 17.6 °F 48% 30.08 in 10.0 mi North 5.8 mph - N/A   Mostly Cloudy
2:56 PM 33.8 °F 27.7 °F 15.8 °F 48% 30.11 in 10.0 mi NNW 6.9 mph - N/A   Mostly Cloudy
3:56 PM 32.0 °F 23.0 °F 14.0 °F 48% 30.14 in 10.0 mi NNW 11.5 mph - N/A   Mostly Cloudy
4:56 PM 30.2 °F - 14.0 °F 51% 30.15 in 10.0 mi Calm Calm - N/A   Mostly Cloudy
5:56 PM 30.2 °F - 21.2 °F 69% 30.18 in 10.0 mi Calm Calm - N/A   Mostly Cloudy
6:56 PM 28.4 °F 21.2 °F 17.6 °F 64% 30.21 in 10.0 mi SE 6.9 mph - N/A   Mostly Cloudy
7:56 PM 28.4 °F - 17.6 °F 64% 30.24 in 10.0 mi Calm Calm - N/A   Mostly Cloudy
8:56 PM 26.6 °F - 17.6 °F 69% 30.26 in 10.0 mi Calm Calm - N/A   Mostly Cloudy
9:56 PM 26.6 °F - 15.8 °F 64% 30.27 in 10.0 mi Calm Calm - N/A   Mostly Cloudy